Location: Unspecified
(0.0000°N, 0.0000°E)
Time: 18:53:23
(UTC+00:00)

Vanguard 2 Rocket - Pass Details

Date: 22 November 2019
Orbit: 554 x 3326 km, 32.9° (Epoch: 05 December)

Event Time Altitude Azimuth Distance (km) Brightness Sun altitude
Rises 15:38:06 0° 224° (SW) 7,193 12.5 29.8°
Reaches altitude 10° 15:45:41 10° 209° (SSW) 5,856 11.9 28.1°
Maximum altitude 15:56:38 20° 169° (S) 4,322 10.6 25.6°
Drops below altitude 10° 16:04:51 10° 127° (SE) 4,287 10.1 23.7°
Sets 16:09:02 0° 110° (ESE) 4,810 10.2 22.7°
